Voltar ao catálogo

COSMOS 249 DEB

AtivoLEO
NORAD 3695·DEBRIS·🇷🇺 Russia

Lançado Oct 20, 1968 de Baikonur Cosmodrome

Loading…

Próximas Passagens (próximas 24 horas)

TLE

AtualizadoSource: Space-Track

Época: Sep 14, 2026, 08:13 UTC

1 03695U 68091AL  26257.34243507  .00001529  00000-0  17742-2 0  9997
2 03695  62.2434  25.5397 0637383 256.8366  96.0802 13.07557789683850

Acompanhe COSMOS 249 DEB em tempo real com AllMySat

Download on the App Store